GW3041 Weather Reports


time (UTC)temp
C
wind
direction
speed
KPH
gust
KPH
rain 1hr
cm
rain 24hr
cm
rain mn
cm
humidity
%
barometer
mb
20260503021556 8 143 0.0 1.6 0.00 0.00 0.00 89 1019.3
20260503020049 9 143 0.0 0.0 0.00 0.00 0.00 88 1019.4
20260503014551 9 143 0.0 1.6 0.00 0.00 0.00 88 1019.5
20260503013033 10 143 1.6 3.2 0.00 0.00 0.00 87 1019.6
20260503011530 10 326 1.6 4.8 0.00 0.00 0.00 87 1019.7
20260503010023 10 199 0.0 3.2 0.00 0.00 0.00 86 1019.9
20260503004516 10 199 0.0 3.2 0.00 0.00 0.00 85 1019.8
20260503003016 10 237 0.0 0.0 0.00 0.00 0.00 87 1020.0
20260503001508 10 237 0.0 0.0 0.00 0.00 0.00 86 1020.2
20260503000107 10 237 0.0 0.0 0.00 0.00 0.00 85 1020.2
20260502234546 11 237 0.0 0.0 0.00 0.00 0.00 84 1020.3
20260502233009 11 237 0.0 0.0 0.00 0.00 0.00 83 1020.4
20260502231600 11 237 0.0 0.0 0.00 0.00 0.00 83 1020.4
20260502230039 11 237 0.0 0.0 0.00 0.00 0.00 81 1020.4
20260502224518 12 237 0.0 0.0 0.00 0.00 0.00 81 1020.3
20260502223032 12 237 0.0 0.0 0.00 0.00 0.00 80 1020.4
20260502221507 12 237 0.0 0.0 0.00 0.00 0.00 77 1020.4
20260502220004 13 237 0.0 1.6 0.00 0.00 0.00 76 1020.3
20260502214617 13 237 0.0 1.6 0.00 0.00 0.00 74 1020.3
20260502213119 14 237 0.0 3.2 0.00 0.00 0.00 73 1020.2
20260502211553 15 166 0.0 3.2 0.00 0.00 0.00 69 1020.1
20260502210042 15 155 0.0 1.6 0.00 0.00 0.00 69 1019.9
20260502204539 16 305 0.0 3.2 0.00 0.00 0.00 66 1019.8
20260502203030 16 294 0.0 3.2 0.00 0.00 0.00 64 1019.7
20260502201515 17 320 1.6 4.8 0.00 0.00 0.00 63 1019.5
20260502200013 17 242 1.6 4.8 0.00 0.00 0.00 62 1019.4
20260502194501 17 279 1.6 4.8 0.00 0.00 0.00 63 1019.3
20260502193059 17 273 1.6 4.8 0.00 0.00 0.00 62 1019.1
20260502191558 17 243 3.2 11.3 0.00 0.00 0.00 62 1019.0
20260502190043 17 277 3.2 8.0 0.00 0.00 0.00 62 1018.8
20260502184539 18 247 1.6 4.8 0.00 0.00 0.00 62 1018.5
20260502183032 18 193 1.6 6.4 0.00 0.00 0.00 60 1018.3
20260502181521 19 253 1.6 8.0 0.00 0.00 0.00 58 1018.0
20260502163047 20 228 1.6 4.8 0.00 0.00 0.00 57 1017.6
20260502161546 19 278 1.6 6.4 0.00 0.00 0.00 55 1017.6
20260502151604 20 236 1.6 4.8 0.00 0.00 0.00 58 1018.0
20260502123111 22 90 12.9 24.1 0.00 0.00 0.00 47 1020.5
20260502121543 22 142 8.0 25.7 0.00 0.00 0.00 48 1020.7
20260502114526 22 135 12.9 22.5 0.00 0.00 0.00 47 1021.3
20260502113016 21 124 11.3 19.3 0.00 0.00 0.00 51 1021.5
20260502111509 21 113 8.0 27.4 0.00 0.00 0.00 51 1021.8
20260502110003 21 115 8.0 22.5 0.00 0.00 0.00 52 1022.3
20260502104558 21 113 12.9 20.9 0.00 0.00 0.00 56 1022.6
20260502103054 21 87 6.4 17.7 0.00 0.00 0.00 59 1022.8
20260502101547 20 139 6.4 20.9 0.00 0.00 0.00 60 1023.1
20260502091521 18 99 1.6 11.3 0.00 0.00 0.00 63 1024.2
20260502080105 15 255 0.0 4.8 0.00 0.00 0.00 68 1025.3
20260502071528 12 20 0.0 4.8 0.00 0.00 0.00 81 1025.8
20260502070023 12 314 3.2 4.8 0.00 0.00 0.00 81 1025.8
20260502064517 11 135 1.6 6.4 0.00 0.00 0.00 85 1025.9
20260502063009 10 85 0.0 3.2 0.00 0.00 0.00 90 1026.0
20260502061602 8 229 0.0 0.0 0.00 0.00 0.00 92 1026.1
20260502060055 7 229 0.0 0.0 0.00 0.00 0.00 92 1026.2
20260502054551 7 229 0.0 0.0 0.00 0.00 0.00 92 1026.4
20260502053042 7 229 0.0 0.0 0.00 0.00 0.00 93 1026.3
20260502051537 7 229 0.0 3.2 0.00 0.00 0.00 93 1026.3
20260502050030 6 229 0.0 3.2 0.00 0.00 0.00 92 1026.3
20260502044519 6 229 0.0 0.0 0.00 0.00 0.00 92 1026.1
20260502043012 6 229 0.0 3.2 0.00 0.00 0.00 92 1026.1
20260502041508 6 229 0.0 0.0 0.00 0.00 0.00 92 1025.9
20260502040106 6 228 0.0 0.0 0.00 0.00 0.00 92 1025.9
20260502034558 6 228 0.0 0.0 0.00 0.00 0.00 92 1025.8
20260502033051 6 228 0.0 0.0 0.00 0.00 0.00 92 1025.7
20260502031544 6 228 0.0 0.0 0.00 0.00 0.00 92 1025.6
20260502030036 7 228 0.0 0.0 0.00 0.00 0.00 92 1025.7
20260502024529 7 228 0.0 0.0 0.00 0.00 0.00 92 1025.6
20260502023022 7 228 0.0 0.0 0.00 0.00 0.00 91 1025.5